Overview Statistics Trail Chart Weather Telemetry Raw packets
 

This is the latest recevied weather packets stored in our database for station/object KD2FKI. If no packets are shown the sender has not sent any weather packets the latest 10 day(s).

<< 40 41 42 43 44 45 46 >>
Time Temp. Humidity Pressure Rain* Wind** Luminosity Snow
1777581641 18.89° C 41% - 0 mm - - -
1777581030 18.89° C 40% - 0 mm - - -
1777580439 20° C 39% - 0 mm - - -
1777579847 19.44° C 39% - 0 mm - - -
1777579253 19.44° C 38% - 0 mm - - -
1777578645 20° C 38% - 0 mm - - -
1777578033 21.11° C 37% - 0 mm - - -
1777577440 21.11° C 38% - 0 mm - - -
1777576832 20.56° C 39% - 0 mm - - -
1777576240 20.56° C 39% - 0 mm - - -
1777575663 21.11° C 37% - 0 mm - - -
1777575053 21.11° C 40% - 0 mm - - -
1777574445 21.11° C 41% - 0 mm - - -
1777573852 21.11° C 41% - 0 mm - - -
1777573241 21.11° C 40% - 0 mm - - -
1777572630 21.11° C 40% - 0 mm - - -
1777572037 21.11° C 43% - 0 mm - - -
1777571464 21.67° C 41% - 0 mm - - -
1777570834 21.11° C 43% - 0 mm - - -
1777570244 21.11° C 44% - 0 mm - - -
1777569633 20.56° C 45% - 0 mm - - -
1777569041 20° C 46% - 0 mm - - -
1777568448 20.56° C 45% - 0 mm - - -
1777567839 19.44° C 46% - 0 mm - - -
1777567244 19.44° C 46% - 0 mm - - -

* Rain latest hour (hover to see other rain measurements)
** Current wind speed in m/s (hover to see current wind gust speed)